Location: Newark
(11.2914°S, 14.4718°E)
Time: 00:38:44
(UTC+00:00)

Tiros 1 despin weight - Pass Details

Date: 18 September 2019
Orbit: 593 x 643 km, 48.2° (Epoch: 20 October)

Event Time Altitude Azimuth Distance (km) Brightness Sun altitude
Rises 08:11:38 0° 219° (SW) 2,950 ? 47.0°
Reaches altitude 10° 08:13:59 10° 218° (SW) 2,035 ? 47.5°
Maximum altitude 08:18:41 81° 131° (SE) 647 ? 48.6°
Drops below altitude 10° 08:23:18 10° 43° (NE) 2,000 ? 49.7°
Sets 08:25:36 0° 42° (NE) 2,895 ? 50.2°
